KB1JLI Weather Reports


time (UTC)temp
C
wind
direction
speed
KPH
gust
KPH
rain 1hr
cm
rain 24hr
cm
rain mn
cm
humidity
%
barometer
mb
20260507115123 10 283 3.2 3.2 0.00 0.08 0.08 79 1008.1
20260507114619 10 164 0.0 0.0 0.00 0.08 0.08 80 1007.9
20260507114116 10 240 0.0 1.6 0.00 0.08 0.08 81 1008.3
20260507113614 10 237 0.0 1.6 0.00 0.08 0.08 81 1008.1
20260507113111 10 237 1.6 3.2 0.00 0.08 0.08 81 1008.1
20260507112609 10 166 0.0 0.0 0.00 0.08 0.08 84 1007.9
20260507112105 10 80 0.0 1.6 0.00 0.08 0.08 83 1007.9
20260507111602 9 80 1.6 1.6 0.00 0.08 0.08 84 1007.8
20260507111059 9 113 0.0 0.0 0.00 0.08 0.08 85 1007.8
20260507110555 9 113 0.0 0.0 0.00 0.08 0.08 85 1008.0
20260507110052 9 136 0.0 0.0 0.00 0.08 0.08 84 1008.1
20260507105548 9 241 0.0 3.2 0.00 0.08 0.08 83 1008.1
20260507105044 9 269 1.6 3.2 0.00 0.08 0.08 85 1008.1
20260507104542 9 237 1.6 3.2 0.00 0.08 0.08 86 1007.7
20260507104038 9 296 0.0 3.2 0.00 0.08 0.08 88 1007.5
20260507103534 8 253 1.6 1.6 0.00 0.08 0.08 88 1007.6
20260507103031 8 197 0.0 1.6 0.00 0.08 0.08 90 1007.6
20260507102528 9 90 0.0 1.6 0.00 0.08 0.08 91 1007.2
20260507102024 9 90 0.0 1.6 0.00 0.08 0.08 91 1007.0
20260507101520 9 57 0.0 1.6 0.00 0.08 0.08 91 1007.6
20260507101016 8 219 0.0 0.0 0.00 0.08 0.08 92 1007.6
20260507100514 8 188 1.6 1.6 0.00 0.08 0.08 92 1007.1
20260507100012 9 323 3.2 3.2 0.00 0.08 0.08 92 1007.0
20260507095509 9 267 1.6 3.2 0.00 0.08 0.08 92 1007.3
20260507095005 9 254 0.0 0.0 0.00 0.08 0.08 92 1007.4
20260507094502 9 211 0.0 0.0 0.13 0.08 0.08 91 1007.4
20260507093959 9 201 0.0 0.0 0.13 0.08 0.08 91 1007.5
20260507093456 9 233 1.6 3.2 0.00 0.05 0.05 91 1007.4
20260507092955 9 299 3.2 3.2 0.00 0.05 0.05 91 1007.2
20260507092450 9 245 1.6 1.6 0.00 0.05 0.05 90 1007.4
20260507091942 9 223 0.0 0.0 0.00 0.05 0.05 90 1007.4
20260507091439 9 320 0.0 1.6 0.00 0.05 0.05 89 1007.8
20260507090934 9 293 1.6 1.6 0.00 0.05 0.05 90 1007.8
20260507090430 10 194 0.0 0.0 0.00 0.05 0.05 90 1007.6
20260507085927 10 200 0.0 0.0 0.00 0.05 0.05 89 1007.5
20260507085424 10 219 0.0 0.0 0.00 0.05 0.05 90 1007.5
20260507084921 9 353 1.6 4.8 0.00 0.05 0.05 91 1007.6
20260507084418 10 83 3.2 3.2 0.00 0.05 0.05 92 1007.2
20260507083915 10 271 3.2 3.2 0.00 0.05 0.05 92 1007.5
20260507083412 10 291 1.6 3.2 0.00 0.05 0.05 92 1007.1
20260507082908 10 286 1.6 1.6 0.00 0.05 0.05 92 1007.0
20260507082404 10 285 0.0 0.0 0.00 0.05 0.05 92 1007.1
20260507081901 10 103 1.6 1.6 0.00 0.05 0.05 92 1006.8
20260507081357 10 104 1.6 1.6 0.00 0.05 0.05 92 1007.1
20260507080854 10 105 0.0 0.0 0.00 0.05 0.05 91 1007.1
20260507080350 10 219 1.6 1.6 0.00 0.05 0.05 90 1007.5
20260507075846 10 207 0.0 0.0 0.18 0.05 0.05 89 1007.5
20260507075342 10 298 0.0 3.2 0.18 0.05 0.05 88 1007.0
20260507074838 10 1 1.6 6.4 0.00 0.03 0.03 87 1007.0
20260507074336 10 203 3.2 4.8 0.00 0.03 0.03 87 1007.3
20260507073833 10 297 3.2 4.8 0.00 0.03 0.03 88 1007.0
20260507073329 10 198 0.0 4.8 0.00 0.03 0.03 88 1006.9
20260507072827 10 334 4.8 6.4 0.00 0.03 0.03 88 1006.8
20260507072324 11 195 0.0 1.6 0.00 0.03 0.03 89 1006.7
20260507071821 10 280 6.4 6.4 0.00 0.03 0.03 90 1006.6
20260507071318 10 279 1.6 3.2 0.00 0.03 0.03 92 1006.7
20260507070815 10 226 0.0 0.0 0.00 0.03 0.03 93 1006.8
20260507070312 11 225 0.0 0.0 0.00 0.03 0.03 93 1006.5
20260507065809 11 116 0.0 0.0 0.00 0.03 0.03 93 1006.3
20260507065306 11 169 0.0 0.0 0.00 0.03 0.03 93 1006.6
20260507064803 11 171 0.0 0.0 0.00 0.03 0.03 93 1006.5
20260507064301 11 181 0.0 3.2 0.00 0.03 0.03 93 1006.7
20260507063759 10 199 0.0 0.0 0.00 0.03 0.03 92 1006.5
20260507063255 10 183 0.0 0.0 0.00 0.03 0.03 92 1006.6
20260507062752 11 183 0.0 0.0 0.00 0.03 0.03 92 1006.3
20260507062249 11 186 0.0 0.0 0.00 0.03 0.03 92 1006.3
20260507061747 11 139 0.0 0.0 0.00 0.03 0.03 93 1006.3
20260507061245 11 103 0.0 0.0 0.00 0.03 0.03 94 1006.3
20260507060743 11 132 0.0 0.0 0.00 0.03 0.03 94 1006.4
20260507060239 11 231 0.0 1.6 0.00 0.03 0.03 94 1006.5
20260507055735 11 177 0.0 1.6 0.00 0.03 0.03 93 1006.6
20260507055231 11 207 0.0 1.6 0.00 0.03 0.03 93 1006.7
20260507054727 11 234 0.0 3.2 0.00 0.03 0.03 94 1006.8
20260507054224 11 35 0.0 3.2 0.00 0.03 0.03 95 1006.8
20260507053722 11 273 1.6 3.2 0.00 0.03 0.03 96 1006.6
20260507053219 12 186 0.0 3.2 0.00 0.03 0.03 96 1006.8
20260507052718 12 278 0.0 0.0 0.00 0.03 0.03 96 1006.7
20260507052214 12 240 1.6 3.2 0.00 0.03 0.03 96 1006.4
20260507051712 12 227 1.6 3.2 0.00 0.03 0.03 96 1006.5
20260507051209 12 294 1.6 3.2 0.00 0.03 0.03 96 1006.7
20260507050705 12 43 3.2 3.2 0.00 0.03 0.03 96 1006.7
20260507050202 13 73 0.0 4.8 0.00 0.03 0.03 96 1006.9
20260507045659 13 344 1.6 9.7 0.00 0.03 0.03 96 1007.0
20260507045156 13 131 1.6 3.2 0.00 0.03 0.03 96 1006.7
20260507044652 13 217 0.0 0.0 0.00 0.03 0.03 96 1006.6
20260507044149 13 206 0.0 0.0 0.00 0.03 0.03 96 1006.4
20260507043645 13 209 0.0 1.6 0.00 0.03 0.03 95 1006.5
20260507043142 13 244 1.6 6.4 0.00 0.03 0.03 95 1006.6
20260507042639 13 192 3.2 3.2 0.00 0.03 0.03 95 1006.2
20260507042134 13 5 4.8 9.7 0.13 0.03 0.03 95 1006.3
20260507041631 14 215 1.6 6.4 0.00 0.00 0.00 95 1006.3
20260507041127 14 220 1.6 4.8 0.00 0.00 0.00 96 1006.4
20260507040625 14 188 0.0 1.6 0.00 0.00 0.00 96 1006.5
20260507040121 14 206 0.0 0.0 0.00 0.00 0.00 97 1006.4
20260507035617 14 183 4.8 4.8 0.00 0.58 0.58 97 1006.5
20260507035113 15 207 0.0 3.2 0.00 0.58 0.58 97 1006.4
20260507034610 15 35 0.0 0.0 0.00 0.58 0.58 97 1006.2
20260507034108 15 149 1.6 4.8 0.00 0.58 0.58 97 1006.2
20260507033606 15 181 0.0 1.6 0.00 0.58 0.58 97 1006.2
20260507033103 15 205 8.0 11.3 0.00 0.58 0.58 98 1005.9
20260507032600 15 248 1.6 3.2 0.00 0.58 0.58 97 1005.8
20260507032056 15 184 4.8 11.3 0.00 0.58 0.58 98 1005.8
20260507031552 15 181 0.0 3.2 0.00 0.58 0.58 98 1005.7
20260507031050 15 188 3.2 6.4 0.00 0.58 0.58 98 1005.6
20260507030546 15 178 1.6 14.5 0.00 0.58 0.58 98 1005.4
20260507030044 15 232 0.0 4.8 0.00 0.58 0.58 98 1005.4
20260507025541 15 141 3.2 4.8 0.00 0.58 0.58 98 1005.6
20260507025038 15 185 1.6 11.3 0.00 0.58 0.58 98 1005.4
20260507024536 15 202 1.6 3.2 0.00 0.58 0.58 98 1005.6
20260507024032 15 168 4.8 11.3 0.00 0.58 0.58 98 1005.8
20260507023528 15 175 1.6 4.8 0.00 0.58 0.58 98 1005.7
20260507023026 15 149 1.6 11.3 0.00 0.58 0.58 98 1005.7
20260507022523 15 196 3.2 6.4 0.00 0.58 0.58 98 1005.6
20260507022018 15 219 4.8 12.9 0.00 0.58 0.58 98 1005.6
20260507021514 15 188 1.6 9.7 0.00 0.58 0.58 98 1005.6
20260507021011 15 194 1.6 6.4 0.00 0.58 0.58 98 1005.6
20260507020508 15 222 1.6 9.7 0.00 0.58 0.58 98 1005.8
20260507020005 15 166 1.6 3.2 0.00 0.58 0.58 98 1006.0
20260507015503 15 271 0.0 1.6 0.00 0.58 0.58 98 1006.0
20260507015000 15 151 0.0 6.4 0.00 0.58 0.58 98 1005.9
20260507014457 15 145 3.2 6.4 0.00 0.58 0.58 98 1005.8
20260507013953 15 173 0.0 3.2 0.00 0.58 0.58 98 1006.0
20260507013449 15 20 6.4 6.4 0.00 0.58 0.58 98 1005.8
20260507012947 15 263 3.2 6.4 0.00 0.58 0.58 98 1005.8
20260507012444 15 187 0.0 6.4 0.00 0.58 0.58 98 1006.1
20260507011940 15 123 3.2 4.8 0.00 0.58 0.58 98 1005.9
20260507011437 15 209 0.0 1.6 0.00 0.58 0.58 98 1006.1
20260507010932 15 186 6.4 9.7 0.00 0.58 0.58 98 1006.0
20260507010427 15 182 1.6 6.4 0.00 0.58 0.58 98 1006.1
20260507005924 15 176 6.4 6.4 0.00 0.58 0.58 98 1006.1
20260507005422 15 159 0.0 3.2 0.00 0.58 0.58 98 1006.2
20260507004918 15 202 4.8 11.3 0.00 0.58 0.58 98 1006.0
20260507004415 15 167 6.4 9.7 0.00 0.58 0.58 98 1005.9
20260507003912 15 200 1.6 4.8 0.00 0.58 0.58 98 1006.0
20260507003407 15 197 0.0 3.2 0.00 0.58 0.58 98 1006.0
20260507002903 15 92 1.6 3.2 0.00 0.58 0.58 98 1005.8
20260507002359 15 182 1.6 9.7 0.00 0.58 0.58 98 1005.9
20260507001856 15 169 1.6 9.7 0.00 0.58 0.58 98 1005.8
20260507001353 15 208 6.4 17.7 0.00 0.58 0.58 98 1005.7
20260507000850 15 185 8.0 11.3 0.00 0.58 0.58 98 1005.6
20260507000345 15 157 1.6 12.9 0.00 0.58 0.58 98 1005.5
20260506235842 15 215 1.6 4.8 0.18 0.58 0.58 98 1005.5
20260506235338 15 132 0.0 4.8 0.18 0.58 0.58 98 1005.7
20260506234829 15 212 6.4 11.3 0.00 0.56 0.56 98 1005.8
20260506234327 15 228 3.2 9.7 0.00 0.56 0.56 97 1005.6
20260506233824 15 232 8.0 9.7 0.18 0.56 0.56 97 1005.7
20260506233320 15 234 1.6 3.2 0.48 0.56 0.56 97 1005.7
20260506232817 15 211 4.8 9.7 0.61 0.53 0.53 97 1005.6
20260506232312 15 127 1.6 6.4 0.30 0.46 0.46 97 1005.9
20260506231809 15 199 4.8 4.8 0.13 0.43 0.43 97 1005.8
20260506231307 15 148 0.0 1.6 0.00 0.41 0.41 97 1005.7
20260506230805 15 191 0.0 0.0 0.00 0.41 0.41 97 1006.0
20260506230301 15 188 1.6 9.7 0.00 0.41 0.41 97 1006.0
20260506225757 15 193 0.0 4.8 0.00 0.41 0.41 97 1006.0
20260506225254 15 216 0.0 4.8 0.00 0.41 0.41 97 1006.0
20260506224745 15 208 1.6 9.7 0.00 0.41 0.41 97 1005.9
20260506224243 15 195 3.2 16.1 0.00 0.41 0.41 96 1005.9
20260506223738 15 190 4.8 12.9 0.18 0.41 0.41 96 1005.7
20260506223234 15 200 0.0 11.3 0.30 0.41 0.41 96 1006.0
20260506222731 15 99 1.6 4.8 0.13 0.38 0.38 96 1006.0
20260506222227 15 190 1.6 12.9 0.00 0.36 0.36 95 1006.0
20260506221725 15 208 8.0 11.3 0.00 0.36 0.36 95 1006.1
20260506221223 15 185 1.6 12.9 0.00 0.36 0.36 95 1006.1
20260506220720 15 197 11.3 16.1 0.00 0.36 0.36 96 1006.0
20260506220214 15 188 11.3 14.5 0.00 0.36 0.36 96 1006.1
20260506215711 15 203 1.6 4.8 0.00 0.36 0.36 96 1006.1
20260506215207 15 235 9.7 11.3 0.00 0.36 0.36 96 1006.5
20260506214704 15 219 4.8 12.9 0.00 0.36 0.36 96 1006.2
20260506214201 15 214 6.4 6.4 0.18 0.36 0.36 96 1006.4
20260506213700 15 204 3.2 6.4 0.18 0.36 0.36 96 1006.4
20260506213156 15 68 0.0 11.3 0.00 0.33 0.33 96 1006.7
20260506212653 15 160 6.4 6.4 0.00 0.33 0.33 96 1006.6
20260506212148 15 341 3.2 3.2 0.13 0.33 0.33 96 1006.6
20260506211644 15 234 4.8 6.4 0.00 0.30 0.30 95 1006.7
20260506211141 15 223 1.6 11.3 0.18 0.30 0.30 95 1006.7
20260506210638 15 166 0.0 3.2 0.18 0.30 0.30 95 1006.9
20260506210134 15 202 6.4 14.5 0.13 0.28 0.28 94 1006.8
20260506205632 15 185 0.0 14.5 0.30 0.28 0.28 94 1006.8
20260506205126 15 156 3.2 11.3 0.36 0.25 0.25 94 1006.9
20260506204625 16 172 1.6 3.2 0.30 0.23 0.23 94 1007.1
20260506204121 16 194 1.6 9.7 0.13 0.20 0.20 94 1007.0
20260506203620 16 227 3.2 12.9 0.18 0.18 0.18 93 1006.8
20260506203116 16 146 0.0 1.6 0.30 0.18 0.18 92 1006.9
20260506202614 16 173 6.4 14.5 0.30 0.15 0.15 91 1006.9
20260506202110 16 136 0.0 4.8 0.18 0.13 0.13 91 1006.8
20260506201607 16 154 6.4 6.4 0.00 0.10 0.10 90 1006.8
20260506201104 17 203 4.8 12.9 0.13 0.10 0.10 89 1006.8
20260506200600 17 159 0.0 4.8 0.13 0.10 0.10 89 1006.6
20260506200057 17 161 0.0 4.8 0.18 0.08 0.08 88 1007.0
20260506195553 17 190 1.6 4.8 0.18 0.08 0.08 87 1006.8
20260506195050 17 138 0.0 6.4 0.00 0.05 0.05 86 1006.6
20260506194548 17 185 1.6 14.5 0.00 0.05 0.05 85 1006.9
20260506194043 17 170 1.6 4.8 0.13 0.05 0.05 86 1006.7
20260506193542 17 53 0.0 1.6 0.13 0.05 0.05 84 1006.8
20260506193038 18 223 1.6 9.7 0.18 0.03 0.03 82 1007.0
20260506192535 18 169 4.8 12.9 0.18 0.03 0.03 79 1007.0
20260506192031 18 301 1.6 9.7 0.00 0.00 0.00 77 1006.9
20260506191528 19 340 4.8 11.3 0.00 0.00 0.00 75 1006.8
20260506191024 20 257 1.6 3.2 0.00 0.00 0.00 73 1007.1
20260506190521 20 348 3.2 3.2 0.00 0.00 0.00 71 1007.0
20260506190019 20 207 9.7 17.7 0.00 0.00 0.00 69 1006.8
20260506185515 20 221 3.2 6.4 0.00 0.00 0.00 67 1006.9
20260506185012 20 154 6.4 17.7 0.00 0.00 0.00 66 1007.0
20260506184509 21 346 6.4 9.7 0.00 0.00 0.00 64 1006.7
20260506184006 21 301 11.3 12.9 0.00 0.00 0.00 62 1006.9
20260506183503 21 190 4.8 16.1 0.00 0.00 0.00 60 1007.2
20260506183000 21 192 17.7 29.0 0.00 0.00 0.00 58 1006.7
20260506182456 21 95 6.4 11.3 0.00 0.00 0.00 60 1007.1
20260506181953 21 198 3.2 12.9 0.00 0.00 0.00 61 1007.0
20260506181451 21 214 16.1 22.5 0.00 0.00 0.00 61 1006.8
20260506180948 21 310 1.6 3.2 0.00 0.00 0.00 61 1007.1
20260506180444 21 187 3.2 27.4 0.00 0.00 0.00 61 1007.1
20260506175941 22 240 8.0 12.9 0.00 0.00 0.00 59 1007.0
20260506175438 22 116 6.4 17.7 0.00 0.00 0.00 59 1007.2
20260506174934 22 175 3.2 11.3 0.00 0.00 0.00 59 1007.2
20260506174432 22 190 6.4 16.1 0.00 0.00 0.00 59 1007.2
20260506173923 22 199 3.2 12.9 0.00 0.00 0.00 59 1007.1
20260506173420 22 145 4.8 16.1 0.00 0.00 0.00 59 1007.4
20260506172918 22 162 4.8 25.7 0.00 0.00 0.00 58 1007.4
20260506172414 23 246 1.6 3.2 0.00 0.00 0.00 58 1007.4
20260506171911 22 201 9.7 20.9 0.00 0.00 0.00 60 1007.3
20260506171408 22 217 1.6 3.2 0.00 0.00 0.00 59 1007.4
20260506170906 22 235 4.8 11.3 0.00 0.00 0.00 60 1007.6
20260506170401 22 169 6.4 9.7 0.00 0.00 0.00 60 1007.5
20260506165855 21 42 4.8 6.4 0.00 0.00 0.00 60 1007.6
20260506165353 21 97 1.6 6.4 0.00 0.00 0.00 61 1007.7
20260506164849 21 235 8.0 11.3 0.00 0.00 0.00 61 1007.5
20260506164346 22 212 1.6 9.7 0.00 0.00 0.00 59 1007.8
20260506163844 22 149 1.6 11.3 0.00 0.00 0.00 59 1007.9
20260506163338 22 20 4.8 6.4 0.00 0.00 0.00 59 1007.8
20260506162833 22 212 6.4 24.1 0.00 0.00 0.00 59 1007.7
20260506162331 22 212 4.8 20.9 0.00 0.00 0.00 58 1007.8
20260506161828 22 115 1.6 9.7 0.00 0.00 0.00 59 1008.1
20260506161325 22 210 16.1 16.1 0.00 0.00 0.00 59 1008.3
20260506160818 22 215 3.2 16.1 0.00 0.00 0.00 60 1008.2
20260506160314 22 188 9.7 14.5 0.00 0.00 0.00 60 1008.3
20260506155813 22 207 1.6 14.5 0.00 0.00 0.00 60 1008.4
20260506155309 21 194 0.0 11.3 0.00 0.00 0.00 61 1008.6
20260506153422 21 208 0.0 4.8 0.00 0.00 0.00 63 1009.1
20260506152919 21 164 14.5 17.7 0.00 0.00 0.00 63 1009.1
20260506152416 21 218 6.4 6.4 0.00 0.00 0.00 63 1009.2
20260506151915 21 213 6.4 9.7 0.00 0.00 0.00 64 1009.2
20260506151411 21 211 6.4 14.5 0.00 0.00 0.00 63 1009.1
20260506150909 21 138 6.4 20.9 0.00 0.00 0.00 64 1009.1
20260506150405 21 126 4.8 6.4 0.00 0.00 0.00 64 1009.1
20260506145902 21 187 9.7 17.7 0.00 0.00 0.00 66 1009.3
20260506145358 21 202 4.8 9.7 0.00 0.00 0.00 66 1009.4
20260506144856 21 194 3.2 16.1 0.00 0.00 0.00 66 1009.4
20260506144352 20 174 4.8 14.5 0.00 0.00 0.00 66 1009.4
20260506143850 21 201 6.4 12.9 0.00 0.00 0.00 65 1009.3
20260506143347 21 170 9.7 17.7 0.00 0.00 0.00 65 1009.4
20260506142845 20 287 3.2 14.5 0.00 0.00 0.00 67 1009.1
20260506142343 20 166 11.3 17.7 0.00 0.00 0.00 68 1009.2
20260506141841 20 225 6.4 17.7 0.00 0.00 0.00 69 1008.8
20260506141339 20 338 3.2 17.7 0.00 0.00 0.00 68 1009.2
20260506140837 20 240 6.4 12.9 0.00 0.00 0.00 69 1009.2
20260506140333 20 134 9.7 14.5 0.00 0.00 0.00 70 1009.3
20260506135830 19 198 11.3 14.5 0.00 0.00 0.00 70 1009.3
20260506135327 19 208 6.4 14.5 0.00 0.00 0.00 71 1009.2
20260506134823 19 217 12.9 14.5 0.00 0.00 0.00 71 1009.4
20260506134320 19 194 4.8 17.7 0.00 0.00 0.00 72 1009.8
20260506133817 19 183 3.2 4.8 0.00 0.00 0.00 71 1009.7
20260506133314 19 151 1.6 4.8 0.00 0.00 0.00 72 1009.8
20260506132810 18 180 3.2 3.2 0.00 0.00 0.00 72 1009.7
20260506132308 19 191 12.9 17.7 0.00 0.00 0.00 72 1009.7
20260506131806 19 190 11.3 14.5 0.00 0.00 0.00 72 1009.8
20260506131301 18 219 1.6 12.9 0.00 0.00 0.00 74 1009.8
20260506130759 18 228 9.7 17.7 0.00 0.00 0.00 74 1009.7
20260506130255 18 181 6.4 11.3 0.00 0.00 0.00 74 1009.7
20260506125753 18 178 4.8 11.3 0.00 0.00 0.00 74 1009.7
20260506125251 19 193 0.0 6.4 0.00 0.00 0.00 73 1009.7
20260506124749 18 192 9.7 22.5 0.00 0.00 0.00 74 1009.6
20260506124246 18 203 12.9 17.7 0.00 0.00 0.00 75 1009.7
20260506123744 17 205 14.5 17.7 0.00 0.00 0.00 77 1009.7
20260506123242 17 174 1.6 6.4 0.00 0.00 0.00 77 1009.8
20260506122739 17 245 4.8 16.1 0.00 0.00 0.00 77 1010.1
20260506122236 17 206 3.2 6.4 0.00 0.00 0.00 76 1010.1
20260506121734 17 189 17.7 20.9 0.00 0.00 0.00 76 1009.9
20260506121230 17 120 3.2 9.7 0.00 0.00 0.00 77 1009.7
20260506120728 17 296 6.4 9.7 0.00 0.00 0.00 78 1009.8
20260506120225 17 174 8.0 9.7 0.00 0.00 0.00 78 1010.2
20260506115723 17 207 4.8 6.4 0.00 0.00 0.00 78 1010.0